Content
SEND FEEDBACK

Daily
Averages
Monthly
Summary
Canada

LONDON, ONTARIO


Home > North America > Canada > Ontario
Elevation: 912 feet     Latitude: 43 02N     Longitude: 081 09W

WEATHER
 
SELECT A DAY
Number of Records: 194,527;   Date Range: 1/1/95 - 10/19/14
 
SHARE

PRINT THIS DATA

[ ← Previous Day ]
WEATHER ALMANAC - JULY 6, 2013
[ Next Day → ]
[ °C ]   °F
Weather ElementAverageHighLow
Temperature72.6 °F80.6 °F (3:00 pm)62.6 °F (6:00 am)
Dewpoint68 °F72 °F (2:00 pm)62.6 °F (3:00 am)
Humidity85.5 %100 % (1:00 am)65 % (6:00 pm)
Barometer30.11 in30.15 in (8:00 am)30.04 in (8:00 pm)
Wind Speed5.4 mph11.5 mph (1:00 pm)
Weather ElementAverage
Visibility8.9 mi
Wind DirectionSE (135.8 °)

Weather ElementTotal
Precipitation---
Cooling Degree Days6.6 (Base 65)
Growing Degree Days21.6 (Base 50)
Averaged from 31 records on July 6, 2013
WEATHER CONDITIONS BREAKOUT
WIND DIRECTION BREAKOUT
WEATHER BY HOUR - JULY 6, 2013
[ °C ]   °F
Local TimeTemperatureDewpointHumidityBarometerVisibilityWind DirectionWind SpeedGust SpeedPrecipitationEventsConditions
1:00 AM66.2 °F66.2 °F100 %30.13 in4.0 miSSE (160°)2.3 mphMostly Cloudy
2:00 AM64.0 °F64.0 °F100 %30.13 in4.0 miSE (140°)1.2 mph
2:00 AM64.4 °F64.4 °F100 %30.13 in4.0 miVariable2.3 mphScattered Clouds
3:00 AM64.4 °F62.6 °F94 %30.13 in2.5 miCalmScattered Clouds
4:00 AM64.4 °F64.4 °F100 %30.13 in2.0 miSouth (180°)3.5 mphMostly Cloudy
5:00 AM64.4 °F62.6 °F94 %30.13 in3.0 miCalmOvercast
5:38 AM64.4 °F62.6 °F94 %30.13 in3.0 miEast (100°)3.5 mphMostly Cloudy
6:00 AM62.6 °F62.6 °F100 %30.13 in3.0 miEast (100°)3.5 mphMostly Cloudy
7:00 AM64.4 °F64.4 °F100 %30.14 in3.0 miEast (90°)2.3 mphMostly Cloudy
8:00 AM68.0 °F66.0 °F92 %30.15 in5.0 miSSE (160°)2.3 mph
8:00 AM68.0 °F66.2 °F94 %30.15 in5.0 miSE (140°)2.3 mphMostly Cloudy
9:00 AM73.4 °F69.8 °F88 %30.15 in7.0 miSSW (210°)4.6 mphMostly Cloudy
10:00 AM75.2 °F71.6 °F89 %30.14 in10.0 miCalmMostly Cloudy
11:00 AM75.2 °F71.6 °F89 %30.14 in10.0 miESE (110°)3.5 mphMostly Cloudy
12:00 PM77.0 °F69.8 °F78 %30.14 in12.0 miEast (100°)5.8 mphMostly Cloudy
12:53 PM77.0 °F71.6 °F83 %30.13 in12.0 miSouth (180°)10.4 mphRainLight Rain Showers
1:00 PM75.2 °F71.6 °F89 %30.13 in12.0 miSouth (170°)11.5 mphRainLight Rain Showers
1:21 PM75.2 °F69.8 °F83 %30.13 in15.0 miSouth (180°)8.1 mphMostly Cloudy
2:00 PM78.0 °F72.0 °F75 %30.12 in15.0 miSouth (180°)9.2 mph
2:00 PM78.8 °F71.6 °F78 %30.12 in15.0 miSouth (170°)10.4 mphMostly Cloudy
3:00 PM80.6 °F71.6 °F74 %30.10 in12.0 miSouth (170°)11.5 mphMostly Cloudy
4:00 PM80.6 °F71.6 °F74 %30.09 in12.0 miSouth (190°)9.2 mphScattered Clouds
5:00 PM78.8 °F69.8 °F74 %30.08 in12.0 miSouth (190°)10.4 mphMostly Cloudy
6:00 PM80.6 °F68.0 °F65 %30.06 in12.0 miSouth (190°)6.9 mphScattered Clouds
7:00 PM78.8 °F68.0 °F69 %30.05 in12.0 miSouth (170°)6.9 mphMostly Cloudy
8:00 PM77.0 °F67.0 °F65 %30.04 in12.0 miSouth (170°)8.1 mph
8:00 PM77.0 °F68.0 °F74 %30.04 in12.0 miSouth (170°)6.9 mphMostly Cloudy
9:00 PM75.2 °F68.0 °F78 %30.04 in12.0 miSSE (150°)6.9 mphMostly Cloudy
10:00 PM75.2 °F69.8 °F83 %30.04 in15.0 miSE (140°)3.5 mphMostly Cloudy
10:08 PM73.4 °F69.8 °F88 %30.05 in12.0 miSE (140°)4.6 mphRainLight Rain Showers
11:00 PM73.4 °F69.8 °F88 %30.06 in7.0 miSSE (160°)4.6 mphRainLight Rain Showers
Hourly data recorded from CYXU, located miles away from London, Ontario







STORIES FROM OUR PARTNERS